Terminal Aerodrome Forecast
Issued by NWS

Home | Current Version | Previous Version | Text Only | Print | Product List | Glossary On
Versions: 1 2 3 4 5 6 7 8 9 10 11 12 13
000
FTAK31 PAJN 050500
TAFAWG
TAF
PAWG 050520Z 0506/0606 10009KT 6SM -RA BR SCT015 BKN030 OVC045
     FM051000 12006KT 5SM -RA BR BKN015 OVC025
     FM051800 VRB04KT 4SM -RA BR BKN010 OVC020
     FM060100 28006KT P6SM -RA SCT010 OVC025
      AMD LTD TO CLD VIS AND WIND 0506/0515=

USA.gov is the U.S. government's official web portal to all federal, state and local government web resources and services.